الصفحة الرئيسية
METAR-TAF:

METAR-TAF

مطار :

Fort Morgan, كولورادو, الولايات المتحدة

دائرة عرض: 40-20-02N, خط طول: 103-48-15W, ارتفاع: 1393 متر

مراقبة الطقس الحالي

تاريخ ووقت الإصدار 29 دقيقة قبل الساعة 02:15UTC
ريح 8 عقدة من الشرق
درجة الحرارة 11°درجة مئوية
الرطوبة 50%
ضغط 1023 hPa
الرؤية: 16.1 كم

METAR: KFMM 230215Z AUTO 09008KT 10SM 11/01 A3022 RMK AO2 T01130012

زمن: 20:44 (02:44 UTC)


TAF: مفقودة

أرصاد الطقس والتوقعات من أكثر من 4000 مطار (تقارير الطقس للمطار METAR والتنبؤ بالطقس بالمطارTAF).

المحطات المتاحة هي النقط الصفراء والحمراء على الخريطة.

حرك المؤشر فوق النقطة لمعرفة اسم المحطة.

ثم انقر لمعرفة أرصاد وتوقعات الطقس.

لتغيير الخارطة: اضغط على الأزرار الخضراء مع رمز الصليب الأسود للتكبير. على الزر الأخضر مع شرطة للتصغير، أو على الأسهم الخضراء للخرائط المجاورة.


METAR-TAF: